IN3BXS Weather Reports


time (UTC)temp
C
wind
direction
speed
KPH
gust
KPH
rain 1hr
cm
rain 24hr
cm
rain mn
cm
humidity
%
barometer
mb
20260506130026 8 247 0.0 19.3 0.30 0.51 0.51 43 1008.1
20260506123026 11 274 0.0 12.9 0.00 0.20 0.20 37 1004.6
20260506120026 11 237 0.0 14.5 0.00 0.20 0.20 37 1004.6
20260506113026 12 243 0.0 16.1 0.00 0.20 0.20 36 1004.2
20260506110028 10 276 0.0 12.9 0.10 0.20 0.20 38 1006.2
20260506103026 11 265 0.0 16.1 0.10 0.33 0.20 36 1006.0
20260506100026 10 202 0.0 9.7 0.00 0.20 0.10 38 1006.3
20260506093026 10 282 0.0 12.9 0.00 0.20 0.10 39 1006.3
20260506090026 10 319 0.0 9.7 0.00 0.20 0.10 41 1006.4
20260506083027 10 294 0.0 4.8 0.00 0.20 0.10 38 1006.6
20260506073026 8 198 0.0 6.4 0.00 0.20 0.10 48 1006.9
20260506043026 8 72 0.0 6.4 0.00 0.10 0.00 50 1007.3
20260506040026 7 116 0.0 0.0 0.00 0.10 0.00 50 1008.5
20260506033026 8 301 0.0 0.0 0.00 0.10 0.00 50 1008.4
20260506030026 7 295 0.0 4.8 0.00 0.10 0.00 50 1008.5
20260506023026 7 73 0.0 6.4 0.00 0.10 0.00 49 1008.6
20260506020026 8 71 0.0 0.0 0.00 0.10 0.00 50 1008.3
20260506013025 8 357 0.0 6.4 0.00 0.10 0.00 50 1009.5
20260506010026 8 84 0.0 0.0 0.00 0.10 0.00 50 1009.5
20260506003025 8 84 0.0 0.0 0.00 0.10 0.00 50 1009.5
20260506000026 8 248 0.0 0.0 0.00 0.10 0.00 50 1009.4
20260505233025 8 248 0.0 0.0 0.00 0.10 0.00 51 1009.4
20260505230026 8 118 0.0 3.2 0.00 0.10 0.00 52 1009.4
20260505223027 8 280 0.0 0.0 0.00 0.10 0.00 52 1009.5
20260505220026 7 280 0.0 0.0 0.00 0.10 0.10 50 1010.0
20260505213025 7 288 0.0 4.8 0.00 0.10 0.10 50 1010.9
20260505210026 7 327 0.0 3.2 0.00 0.10 0.10 48 1010.8
20260505203027 8 245 0.0 8.0 0.00 0.10 0.10 50 1010.4
20260505200025 8 357 0.0 6.4 0.00 0.10 0.10 49 1009.4
20260505190025 8 260 0.0 6.4 0.00 0.10 0.10 50 1009.1
20260505183025 8 286 0.0 9.7 0.00 0.10 0.10 49 1009.2
20260505180025 8 214 0.0 9.7 0.00 0.10 0.10 48 1009.1
20260505173025 9 261 0.0 12.9 0.00 0.10 0.10 45 1009.0
20260505163025 9 187 0.0 14.5 0.00 0.10 0.10 41 1008.9
20260505153026 10 272 0.0 12.9 0.00 0.10 0.10 43 1008.8